Temp
5 5 5 5 5 5 4 3 3 2 2 2 1 1 1 1 1 1 0 0 -0 -1 -1 -1 -1 -2 -2 -1 -1 -1 -2 -3
5 5 4 4 4 4 4 3 3 3 2 1 1 1 1 1 1 0 -0 -1 -1 -1 -1 -2 -2 -1 -2 -2 -2 -2 -2 -3
5 5 5 4 4 4 3 3 3 2 2 1 1 1 1 0 -0 -1 -1 -1 -1 -1 -1 -1 -2 -2 -2 -2 -3 -3 -3 -4
6 5 5 4 4 3 3 3 3 2 2 1 0 0 -1 -1 -1 -1 -1 -1 -1 -2 -2 -2 -2 -2 -3 -3 -4 -4 -4 -5
6 5 5 5 3 3 3 2 2 1 1 0 -0 -1 -2 -1 -2 -2 -2 -2 -2 -2 -2 -2 -2 -3 -4 -4 -5 -5 -6 -6
5 3 5 4 3 3 3 2 2 1 0 -0 -0 -1 -1 -1 -1 -2 -2 -2 -2 -2 -3 -3 -3 -4 -5 -5 -5 -6 -7 -8
3 3 4 4 3 3 3 2 1 1 0 -0 -1 -1 -1 -2 -2 -2 -2 -2 -2 -3 -3 -4 -4 -5 -6 -6 -7 -8 -8 -10
4 4 4 4 3 3 2 1 1 1 0 -0 -1 -1 -1 -3 -2 -2 -2 -3 -3 -4 -4 -5 -5 -6 -7 -7 -8 -9 -11 -11
4 4 4 3 3 2 2 1 1 0 0 0 -1 -2 -2 -3 -2 -3 -3 -4 -4 -4 -5 -5 -6 -7 -8 -8 -10 -11 -12 -13
4 4 3 3 3 2 1 1 0 0 -0 -1 -2 -2 -2 -2 -2 -3 -4 -4 -5 -5 -6 -6 -7 -8 -10 -11 -11 -12 -13 -14
4 3 3 3 2 2 1 0 0 -0 -0 -1 -2 -2 -3 -3 -3 -4 -5 -5 -5 -6 -6 -7 -8 -9 -10 -12 -14 -14 -13 -14
2 2 3 3 2 2 1 -0 -0 -1 -1 -1 -2 -3 -3 -4 -4 -5 -5 -5 -5 -6 -7 -8 -9 -10 -13 -14 -14 -14 -14 -15
1 2 3 2 2 2 1 0 -1 -1 -1 -2 -3 -3 -4 -4 -5 -5 -5 -6 -6 -7 -8 -9 -10 -12 -12 -14 -15 -15 -15 -15
1 2 3 2 2 2 1 -0 -1 -2 -2 -2 -3 -4 -4 -5 -5 -5 -6 -6 -7 -8 -9 -10 -12 -12 -14 -15 -15 -15 -15 -16
1 2 3 2 2 1 0 -1 -1 -2 -2 -4 -4 -5 -5 -5 -5 -6 -7 -7 -8 -9 -9 -11 -12 -13 -14 -15 -15 -16 -16 -16
2 3 3 2 2 1 0 -1 -2 -3 -3 -5 -5 -5 -5 -5 -6 -7 -7 -8 -8 -9 -11 -11 -13 -14 -15 -15 -15 -15 -16 -16
3 3 2 2 2 1 -0 -1 -2 -3 -4 -5 -5 -6 -6 -6 -7 -7 -8 -8 -9 -11 -13 -13 -14 -14 -14 -15 -15 -15 -16 -16
2 2 1 1 1 -0 -1 -2 -3 -3 -5 -6 -7 -8 -7 -7 -8 -8 -9 -10 -10 -12 -14 -14 -14 -14 -14 -15 -15 -16 -16 -16
1 1 1 1 -0 -1 -2 -3 -3 -4 -5 -6 -8 -8 -7 -8 -8 -9 -10 -11 -13 -14 -14 -15 -15 -14 -14 -15 -15 -16 -16 -16
Height
3156 3158 3159 3160 3161 3162 3163 3162 3162 3161 3161 3161 3160 3159 3157 3156 3156 3155 3154 3152 3150 3148 3144 3142 3140 3136 3131 3127 3122 3119 3114 3108
3156 3157 3158 3159 3159 3160 3160 3160 3161 3160 3160 3159 3157 3156 3155 3154 3153 3152 3150 3148 3146 3144 3140 3136 3132 3129 3123 3118 3113 3109 3106 3102
3153 3154 3155 3156 3156 3157 3157 3158 3158 3158 3157 3156 3156 3155 3153 3151 3150 3148 3146 3144 3140 3137 3133 3129 3124 3120 3116 3110 3105 3100 3097 3093
3150 3150 3151 3152 3152 3154 3155 3156 3156 3156 3155 3154 3153 3151 3148 3146 3144 3141 3138 3138 3134 3130 3125 3120 3117 3112 3107 3102 3097 3091 3088 3084
3145 3146 3146 3148 3149 3151 3152 3152 3152 3151 3150 3150 3148 3146 3144 3142 3140 3136 3134 3130 3126 3123 3118 3113 3109 3104 3099 3094 3090 3083 3079 3075
3141 3142 3143 3145 3147 3147 3147 3148 3147 3146 3146 3145 3143 3141 3140 3137 3136 3133 3128 3123 3119 3114 3110 3105 3100 3095 3090 3085 3079 3076 3070 3065
3138 3139 3141 3142 3143 3143 3143 3143 3143 3142 3141 3140 3138 3137 3134 3133 3128 3125 3120 3115 3111 3106 3102 3096 3091 3085 3081 3076 3070 3064 3058 3053
3134 3135 3137 3139 3139 3139 3139 3138 3137 3137 3135 3133 3131 3129 3128 3123 3122 3116 3111 3106 3103 3098 3092 3087 3082 3077 3071 3066 3060 3054 3050 3044
3131 3133 3134 3134 3134 3134 3134 3133 3132 3131 3129 3127 3125 3123 3120 3116 3112 3108 3103 3099 3094 3088 3083 3077 3072 3067 3061 3055 3049 3045 3042 3038
3128 3129 3130 3130 3130 3130 3129 3128 3126 3125 3124 3122 3119 3117 3115 3110 3104 3100 3095 3091 3085 3079 3073 3067 3063 3058 3051 3048 3043 3038 3036 3030
3124 3125 3125 3125 3125 3124 3123 3121 3120 3119 3118 3115 3112 3110 3106 3101 3096 3093 3088 3082 3076 3071 3066 3061 3053 3047 3044 3039 3036 3032 3029 3026
3120 3120 3120 3120 3119 3118 3117 3115 3113 3113 3111 3108 3106 3101 3097 3092 3089 3085 3080 3075 3069 3064 3058 3052 3047 3040 3036 3032 3027 3025 3023 3020
3117 3114 3115 3114 3113 3112 3111 3109 3107 3107 3104 3102 3097 3093 3089 3086 3082 3077 3072 3066 3061 3055 3049 3043 3037 3032 3028 3023 3020 3019 3017 3014
3112 3109 3109 3108 3107 3106 3104 3103 3101 3099 3097 3093 3089 3086 3082 3079 3074 3069 3063 3058 3052 3045 3040 3034 3029 3024 3020 3018 3016 3013 3010 3006
3107 3103 3103 3103 3101 3100 3098 3097 3095 3093 3090 3086 3081 3079 3076 3071 3066 3061 3055 3049 3042 3037 3031 3026 3022 3017 3014 3012 3010 3007 3002 2999
3100 3098 3097 3096 3094 3093 3091 3089 3088 3085 3082 3079 3075 3072 3068 3063 3058 3053 3046 3040 3035 3029 3023 3018 3014 3010 3008 3005 3002 2999 2995 2991
3095 3093 3091 3090 3088 3086 3084 3081 3080 3077 3074 3071 3068 3064 3060 3055 3051 3045 3038 3032 3027 3022 3017 3012 3009 3004 3002 2999 2995 2993 2989 2984
3090 3088 3086 3084 3081 3079 3077 3076 3073 3070 3065 3063 3059 3055 3052 3047 3042 3037 3031 3025 3019 3014 3010 3006 3002 2998 2996 2992 2989 2986 2982 2977
3085 3083 3081 3078 3075 3072 3072 3069 3065 3061 3057 3052 3049 3047 3044 3040 3034 3029 3024 3019 3014 3009 3004 3000 2996 2990 2990 2986 2983 2979 2975 2970
Wind_Speed
16 15 15 15 14 15 14 15 15 16 12 11 8 8 8 8 9 12 13 16 20 24 30 30 33 37 41 43 44 44 45 46
17 17 18 18 17 18 17 16 14 13 10 7 6 6 7 8 10 14 17 21 24 26 31 35 38 40 42 44 46 47 43 43
20 19 19 19 19 18 16 13 12 10 8 7 7 8 10 11 15 18 23 25 30 33 36 37 39 40 41 43 44 45 43 43
21 22 22 23 22 19 14 11 11 10 7 7 9 12 12 15 21 26 29 30 34 36 37 38 39 40 41 42 43 45 43 44
20 20 20 18 17 14 10 10 9 7 9 12 14 10 14 22 25 29 33 38 37 36 37 38 39 39 40 40 40 45 44 45
16 17 19 17 15 10 10 8 7 10 13 15 18 19 23 28 31 34 38 38 37 37 38 38 39 39 39 41 43 40 43 44
20 21 21 18 12 9 11 12 12 12 15 19 22 25 28 28 36 38 39 37 37 38 38 38 38 38 37 37 39 40 42 38
25 26 22 18 13 12 15 16 16 17 20 23 27 30 30 31 34 38 37 38 38 38 38 38 37 36 37 37 37 36 34 35
26 25 23 20 16 17 18 20 21 23 26 30 34 33 37 36 38 37 37 37 38 40 40 39 38 36 37 36 26 25 30 27
26 26 26 24 19 19 21 24 25 27 31 33 36 37 38 40 39 36 36 38 39 40 40 40 39 37 30 24 33 29 28 31
26 27 28 25 22 22 26 28 30 31 33 38 41 41 39 36 36 36 37 39 41 41 39 37 39 37 31 28 24 28 23 25
26 29 28 27 27 26 27 32 35 35 36 40 43 41 36 35 36 36 38 40 41 40 38 37 36 34 25 25 25 22 21 27
25 30 30 30 30 30 33 36 38 37 39 43 41 37 35 35 36 38 40 40 41 40 40 40 37 30 26 25 19 19 22 23
27 33 33 33 34 35 39 40 40 39 42 41 38 36 35 35 37 39 40 41 40 41 41 39 33 31 25 19 19 21 22 26
29 35 35 36 37 39 41 41 41 40 41 36 35 36 35 36 38 39 40 41 41 42 42 37 35 25 21 18 20 23 27 29
34 38 40 41 42 43 40 42 39 39 37 33 36 36 34 36 38 38 40 41 41 41 39 32 26 25 28 25 24 26 28 31
30 32 36 39 41 40 40 39 36 40 38 33 35 32 34 36 35 38 39 41 41 38 30 27 22 22 28 26 25 24 26 29
27 29 31 33 37 38 38 37 39 44 35 37 29 31 35 34 36 38 39 39 39 32 25 24 23 23 22 26 26 26 27 30
22 26 30 35 37 39 37 39 42 43 43 37 29 31 34 34 36 38 38 35 30 27 24 24 24 27 25 27 26 27 29 31
Wind_Direction
195 199 209 221 231 237 244 257 268 290 285 281 285 280 279 285 289 285 298 308 312 312 307 304 298 295 295 296 298 300 302 305
206 207 216 229 236 240 243 255 264 264 270 265 269 276 278 285 301 311 310 311 306 302 298 300 300 301 301 302 304 304 304 303
226 231 235 238 240 241 248 245 250 250 246 244 256 275 288 300 313 316 313 312 309 306 305 304 302 303 303 303 303 303 304 303
234 235 239 242 241 234 227 240 246 251 256 259 280 297 306 309 315 314 316 313 308 307 306 305 305 306 305 304 303 302 304 301
238 233 229 226 213 200 234 231 253 256 271 288 290 277 269 299 299 308 314 312 310 307 306 307 308 307 305 304 303 302 301 300
223 200 208 199 199 212 222 242 269 281 280 278 285 281 283 292 300 301 307 307 307 309 310 312 311 310 309 306 304 302 298 295
199 203 202 208 223 237 233 256 266 269 276 281 277 277 285 307 301 306 307 309 311 314 315 315 314 312 309 306 304 302 300 298
215 218 211 227 241 245 247 256 253 272 283 284 275 276 277 309 310 310 311 313 314 315 317 319 318 315 311 309 305 302 298 287
222 217 225 232 245 239 251 252 257 270 278 285 286 278 282 315 318 316 315 315 317 320 321 321 319 319 317 316 310 299 287 293
221 224 231 239 250 254 256 254 262 272 278 283 284 288 286 310 313 315 316 317 320 322 324 323 320 322 323 304 296 302 289 290
226 230 236 250 259 262 257 259 265 271 279 284 287 292 312 313 315 313 316 319 322 322 322 322 323 323 317 304 298 288 280 284
225 234 252 256 261 268 267 265 270 273 279 284 290 306 311 315 313 314 317 319 320 322 322 324 323 319 313 300 296 295 278 281
222 248 259 260 265 272 273 273 271 270 280 286 300 311 312 311 310 314 317 320 322 323 325 324 324 321 312 310 299 277 285 283
225 253 263 264 269 272 272 269 267 271 281 288 306 308 309 307 312 315 317 320 323 326 324 325 322 319 312 303 293 291 275 280
234 253 263 266 270 273 270 267 268 273 282 297 299 305 304 308 311 313 317 323 325 324 322 324 322 309 310 297 287 287 293 299
254 262 265 268 272 273 270 268 270 273 285 292 297 299 302 307 310 315 320 322 323 321 321 324 319 306 306 307 302 296 295 294
267 270 271 272 275 273 269 268 267 275 283 286 291 295 302 307 313 317 320 322 321 320 318 316 306 302 305 300 305 301 300 303
266 268 271 273 271 271 269 268 270 276 282 280 286 292 299 309 315 319 320 318 317 319 312 312 310 304 304 301 305 305 307 309
270 273 274 268 268 270 265 270 271 275 276 272 289 298 306 314 318 319 317 315 312 309 309 310 312 306 313 307 308 308 311 313